Location: Dreilärchen
(47.9312°N, 8.6113°E)
Time: 20:43:46
(UTC+00:00)

Cosmos 1745 Rocket - Pass Details

Date: 26 May 2022
Orbit: 951 x 999 km, 83.0° (Epoch: 02 July)

Event Time Altitude Azimuth Distance (km) Brightness Sun altitude
Rises 00:33:26 0° 346° (NNW) 3,689 8.0 -19.2°
Reaches altitude 10° 00:36:03 10° 340° (NNW) 2,730 7.1 -19.0°
Maximum altitude 00:41:56 45° 270° (W) 1,292 4.5 -18.7°
Enters shadow 00:44:34 29° 218° (SW) 1,680 4.7 -18.6°
